717  
ASUS43 KGLD 162208  
RWRGLD  
 
GOODLAND FORECAST AREA HOURLY WEATHER ROUNDUP  
NATIONAL WEATHER SERVICE GOODLAND KS  
400 PM MDT MON SEP 16 2019  
   
..OFFICIAL OBSERVATIONS
 
 
 
CITY SKY/WX TMP DP RH WIND PRES REMARKS
 
GOODLAND KS MOSUNNY 86 53 32 S28G40 29.89F  
HILL CITY KS SUNNY 91 54 28 S22G35 29.91F  
IMPERIAL NEB SUNNY 93 47 20 S20G35 29.82F  
MCCOOK NEB SUNNY 93 54 26 S25G43 29.86S  
AKRON CO N/A N/A N/A N/A MISG 29.90F  
BURLINGTON CO MOSUNNY 89 49 25 S26G43 29.92F  
LIMON CO MOSUNNY 85 40 20 S13G22 29.96S  

 
   
..UNOFFICIAL OBSERVATIONS
 
 
 
CITY SKY/WX TMP DP RH WIND PRES REMARKS
 
COLBY KS MOSUNNY 88 45 22 S25G36 29.93S  
TRIBUNE KS MOSUNNY 90 52 27 S30G39 29.96F  
YUMA CO PTSUNNY 93 -17 1 SW8G21 29.85  

 
 
 
CLICK HERE TO GO TO PREVIOUS BULLETINS.

The Nexlab KS Page
The Nexlab CO Page
The Nexlab NE Page Main Text Page